Regional Weather Roundup
Issued by NWS

Home | Current Version | Previous Version | Text Only | Print | Product List | Glossary Off
Versions: 1 2 3 4 5 6 7 8 9 10 11 12 13 14 15 16 17 18 19 20 21 22 23 24 25 26 27 28 29 30 31 32 33 34 35 36 37 38 39 40 41 42 43 44 45 46 47 48 49 50

000
ASUS45 KPSR 111910
RWRAZ

ARIZONA REGIONAL HOURLY WEATHER ROUNDUP
NATIONAL WEATHER SERVICE PHOENIX AZ
1200 PM MST FRI JUL 11 2014

NOTE: FAIR INDICATES FEW OR NO CLOUDS BELOW 12,000 FEET WITH NO
SIGNIFICANT WEATHER AND/OR OBSTRUCTIONS TO VISIBILITY.

AZZ001>003-036-112000-
NORTHWEST ARIZONA

CITY           SKY/WX    TMP DP  RH WIND       PRES   REMARKS
BULLHEAD CITY  SUNNY     99 N/A N/A W3        29.88F
KINGMAN        SUNNY     89  44  20 S8        30.07S
$$

AZZ004>008-015-016-018-112000-
NORTH CENTRAL ARIZONA

CITY           SKY/WX    TMP DP  RH WIND       PRES   REMARKS
GRAND CANYON   SUNNY     77  45  32 SW7       30.30F
WILLIAMS       PTSUNNY   75  48  38 W6        30.36S
PRESCOTT       MOSUNNY   82  52  35 CALM      30.18F
FLAGSTAFF      CLOUDY    77  46  33 VRB3      30.32F
PAYSON         MOSUNNY   86  50  28 VRB6G15   30.19F
PAGE           SUNNY     87  50  27 VRB5      30.11F
$$

AZZ009>014-017-112000-
NORTHEAST ARIZONA

CITY           SKY/WX    TMP DP  RH WIND       PRES   REMARKS
WINSLOW        MOSUNNY   89  47  23 VRB6      30.16F
SAINT JOHNS    MOSUNNY   83  51  33 NW10      30.20F
WINDOW ROCK    PTSUNNY   80  48  32 CALM      30.28F
SHOW LOW       MOSUNNY   75  50  41 E13       30.29S
$$

AZZ023-112000-
GREATER PHOENIX AREA

CITY           SKY/WX    TMP DP  RH WIND       PRES   REMARKS
PHOENIX        MOSUNNY  100  54  21 W5        29.87F
BUCKEYE          N/A     99  48  18 S3        29.89F
GLENDALE       MOSUNNY   99  59  26 S8        29.89F
LUKE AFB       NOT AVBL
DEER VALLEY    SUNNY     96  54  24 CALM      29.90F
SCOTTSDALE     SUNNY     98  54  22 W7        29.91F
MESA-GATEWAY   MOSUNNY   99  52  20 W5        29.92F
CHANDLER       MOSUNNY   99  57  25 VRB6      29.90F
$$

AZZ027-028-112000-
SOUTHWEST MARICOPA COUNTY AND PINAL COUNTY

CITY           SKY/WX    TMP DP  RH WIND       PRES   REMARKS
CASA GRANDE    SUNNY     97  61  30 SW8       29.92F
GILA BEND      PTCLDY   102  37  10 VRB3      29.90F
$$

AZZ503-504-507>509-112000-
SOUTHEAST ARIZONA

CITY           SKY/WX    TMP DP  RH WIND       PRES   REMARKS
TUCSON         SUNNY     94  58  29 VRB5      30.01F
DAVIS-MONTHAN  SUNNY     91  59  33 VRB5      30.00F
RYAN FIELD       N/A     93  59  31 MISG      30.00F
NOGALES        SUNNY     88  57  34 MISG      30.09F
SIERRA VISTA   MOSUNNY   84  55  37 N7        30.15F
DOUGLAS        SUNNY     85  57  38 W5        30.11F
SAFFORD        MOSUNNY   94  57  28 CALM      29.98F
$$

AZZ020-021-025-026-031-112000-
SOUTHWEST ARIZONA

CITY           SKY/WX    TMP DP  RH WIND       PRES   REMARKS
YUMA           PTSUNNY  102  37  10 CALM      29.86S
$$

CAZ031-033-041-043-047-048-061-112000-
SOUTHERN CALIFORNIA

CITY           SKY/WX    TMP DP  RH WIND       PRES   REMARKS
DOWNTOWN L.A.  SUNNY     78  61  55 VRB3      29.99S
L.A. AIRPORT   MOSUNNY   73  59  61 W13       30.02R
SAN DIEGO      MOSUNNY   76  60  57 NW13      30.01S
BURBANK        SUNNY     79  57  46 S8        29.99F
ONTARIO        MOSUNNY   80  57  45 W9        30.00S
RIVERSIDE      SUNNY     82  58  43 VRB5      29.99F
PALM SPRINGS   SUNNY    101  39  12 VRB3      29.88F
EL CENTRO NAS  MOSUNNY  103  42  12 VRB7      29.83S
IMPERIAL       SUNNY    101  43  13 MISG      29.82F
BLYTHE         SUNNY    102  35  10 VRB5      29.85S
NEEDLES        SUNNY     99  57  24 E6        29.88F
$$

NVZ020-UTZ003-112000-
SOUTHERN NEVADA-UTAH

CITY           SKY/WX    TMP DP  RH WIND       PRES   REMARKS
LAS VEGAS      MOSUNNY   91  56  30 VRB5      29.94F
SALT LAKE CITY CLOUDY    77  57  50 N7        30.12R
$$

NMZ009-TXZ055-112000-
NEW MEXICO-WEST TEXAS

CITY           SKY/WX    TMP DP  RH WIND       PRES   REMARKS
ALBUQUERQUE    MOSUNNY   88  50  27 VRB7      30.16F
EL PASO        MOSUNNY   93  53  25 VRB6      30.05F
$$


........................KEY........................
SKY/WX - SKY CONDITION/WEATHER
TMP    - TEMPERATURE IN FAHRENHEIT
DP     - DEW POINT IN FAHRENHEIT
RH     - RELATIVE HUMIDITY IN PERCENT
WIND   - DIRECTION AND SPEED IN MILES PER HOUR (MPH)
VRB    - VARIABLE WIND DIRECTION
PRES   - MEAN SEA LEVEL PRESSURE IN INCHES OF MERCURY
         F - FALLING PRESSURE   R - RISING PRESSURE
         S - STEADY PRESSURE
VSB    - VISIBILITY IN MILES
HX     - HEAT INDEX IN FAHRENHEIT
WCI    - WIND CHILL INDEX IN FAHRENHEIT
TC     - TEMPERATURE IN CELSIUS WHICH IS ALSO KNOWN AS
         TEMPERATURE IN CENTIGRADE
AFB    - AIR FORCE BASE
         LUKE AFB IS LUKE AIR FORCE BASE
         DAVIS-MONTHAN IS DAVIS-MONTHAN AIR FORCE BASE
NAS    - NAVAL AIR STATION
         EL CENTRO NAS IS EL CENTRO NAVAL AIR STATION
N/A    - NOT AVAILABLE


USA.gov is the U.S. government's official web portal to all federal, state and local government web resources and services.